Flag for Kazakhstan Weather past 2 weeks in Shymkent, Kazakhstan

Now
30 °F

Partly sunny.


Feels Like: 30 °F
Forecast: 30 / 40 °F
Wind: 1 mph from North

Location: Shymkent Airport

Current Time: Dec 18, 2014 at 8:56:05 AM

Latest Report: Dec 18, 2014 at 8:30 AM


Visibility: 4 mi

Pressure: 30.24 "Hg

Humidity: 75%

Dew point: 23 °F

Location of ShymkentLocation

Historic Weather in Shymkent — Graph

°F

Shymkent temperature yesterday

Maximum temperature yesterday: 45 °F (at 3:00 PM)
Minimum temperature yesterday: 27 °F (at 12:00 AM)
Average temperature yesterday: 34 °F

Past Weeks' High & Low Weather Summary

 TemperatureHumidityPressure
High45 °F (Dec 3, 8:00 AM)93% (Dec 3, 10:30 AM)30.98 "Hg (Dec 3, 10:30 AM)
Low3 °F (Dec 8, 4:00 AM)29% (Dec 15, 3:30 PM)30.01 "Hg (Dec 3, 8:00 AM)
Average26 °F68%30.46 "Hg
* Reported Dec 3 8:00 AM — Dec 18 8:00 AM, Shymkent, Weather by CustomWeather, © 2014

Note: Actual official high and low records may vary slightly from our data, if they occured in-between our weather recording intervals... More about our weather records

Advertising

Shymkent weather history for previous 24 hours

 ConditionsComfort  
Time TempWeatherWind HumidityBarometerVisibility
8:00 AM
Dec 18
27 °FPartly sunny.6 mph80%30.24 "Hg5 mi
7:30 AM28 °FIce fog.3 mph80%30.24 "Hg3 mi
7:00 AM28 °FIce fog.3 mph74%30.24 "Hg3 mi
6:30 AM28 °FIce fog.1 mph74%30.27 "Hg3 mi
6:00 AM30 °FIce fog.No wind75%30.24 "Hg2 mi
5:30 AM28 °FIce fog.3 mph80%30.24 "Hg2 mi
5:00 AM28 °FIce fog.No wind80%30.24 "Hg2 mi
4:30 AM30 °FIce fog.No wind75%30.27 "Hg2 mi
4:00 AM30 °FIce fog.3 mph80%30.27 "Hg2 mi
3:30 AM30 °FIce fog.3 mph80%30.27 "Hg2 mi
2:30 AM30 °FIce fog.1 mph75%30.27 "Hg2 mi
2:00 AM32 °FIce fog.1 mph75%30.27 "Hg2 mi
1:30 AM32 °FIce fog.3 mph75%30.27 "Hg2 mi
1:00 AM32 °FIce fog.3 mph75%30.27 "Hg1 mi
12:30 AM32 °FIce fog.3 mph75%30.27 "Hg1 mi
12:00 AM32 °FIce fog.3 mph75%30.27 "Hg1 mi
11:30 PM
Dec 17
32 °FIce fog.No wind75%30.27 "Hg1 mi
11:00 PM32 °FIce fog.1 mph75%30.27 "Hg1 mi
10:30 PM32 °FIce fog.1 mph80%30.27 "Hg1 mi
10:00 PM30 °FIce fog.6 mph80%30.27 "Hg1 mi
9:30 PM32 °FIce fog.1 mph80%30.30 "Hg1 mi
9:00 PM32 °FIce fog.1 mph75%30.30 "Hg1 mi
8:30 PM32 °FIce fog.No wind75%30.30 "Hg1 mi
8:00 PM34 °FFog.No wind75%30.30 "Hg3 mi
7:30 PM36 °FOvercast.No wind65%30.30 "Hg4 mi
7:00 PM36 °FOvercast.No wind65%30.30 "Hg4 mi
6:30 PM36 °FOvercast.No wind65%30.30 "Hg4 mi
6:00 PM37 °FClear.No wind60%30.30 "Hg10 mi
5:30 PM37 °FClear.1 mph65%30.30 "Hg10 mi
5:00 PM41 °FClear.1 mph53%30.30 "Hg10 mi
4:30 PM43 °FSunny.3 mph46%30.30 "Hg10 mi
4:00 PM45 °FSunny.1 mph42%30.30 "Hg10 mi
3:30 PM45 °FSunny.1 mph39%30.30 "Hg10 mi
3:00 PM45 °FSunny.1 mph39%30.30 "Hg10 mi
2:30 PM43 °FSunny.3 mph46%30.30 "Hg10 mi
2:00 PM43 °FSunny.3 mph42%30.30 "Hg10 mi
1:30 PM43 °FSunny.1 mph39%30.30 "Hg10 mi
1:00 PM41 °FSunny.1 mph45%30.30 "Hg10 mi
12:30 PM41 °FSunny.1 mph45%30.30 "Hg10 mi
12:00 PM41 °FSunny.1 mph45%30.33 "Hg10 mi
11:30 AM39 °FSunny.1 mph56%30.33 "Hg10 mi
11:00 AM41 °FOvercast.1 mph42%30.33 "Hg5 mi
10:30 AM36 °FOvercast.3 mph60%30.33 "Hg5 mi
10:00 AM34 °FSunny.3 mph65%30.33 "Hg10 mi
9:30 AM27 °FSunny.3 mph74%30.30 "Hg10 mi
9:00 AM28 °FSunny.1 mph64%30.30 "Hg10 mi
8:30 AM28 °FPassing clouds.3 mph69%30.30 "HgN/A
8:00 AM28 °FSunny.8 mph69%30.30 "Hg10 mi
Weather by CustomWeather, © 2014

See weather overviewHow to use our weather pages